Flag for Canada Weather past 2 weeks in Windsor, Ontario, Canada

Now
21 °F

Overcast.


Feels Like: 14 °F
Forecast: 15 / 37 °F
Wind: 6 mph from South

Location: Windsor Weather Station

Current Time: Mar 3, 2015 at 3:27:06 AM

Latest Report: Mar 3, 2015 at 3:00 AM


Visibility: 12 mi

Pressure: 30.32 "Hg

Humidity: 80%

Dew point: 16 °F

Location of WindsorLocation

Historic Weather in Windsor — Graph

°F

Windsor temperature yesterday

Maximum temperature yesterday: 30 °F (at 2:00 PM)
Minimum temperature yesterday: 14 °F (at 9:00 PM)
Average temperature yesterday: 23 °F

Past Weeks' High & Low Weather Summary

 TemperatureHumidityPressure
High30 °F (Mar 2, 2:00 PM)93% (Feb 21, 8:00 AM)30.82 "Hg (Feb 21, 8:00 AM)
Low-15 °F (Feb 16, 6:00 AM)35% (Feb 19, 3:00 PM)29.69 "Hg (Feb 25, 12:00 AM)
Average10 °F69%30.24 "Hg
* Reported Feb 16 2:00 AM — Mar 3 2:00 AM, Windsor, Weather by CustomWeather, © 2015

Note: Actual official high and low records may vary slightly from our data, if they occured in-between our weather recording intervals... More about our weather records

Advertising

Windsor weather history for previous 24 hours

 ConditionsComfort  
Time TempWeatherWind HumidityBarometerVisibility
2:00 AM
Tue, Mar 3
21 °FOvercast.8 mph80%30.36 "Hg15 mi
1:00 AM19 °FOvercast.8 mph86%30.36 "Hg15 mi
12:00 AM19 °FOvercast.9 mph79%30.37 "Hg15 mi
11:00 PM
Mon, Mar 2
18 °FPassing clouds.9 mph79%30.40 "Hg15 mi
10:00 PM14 °FPassing clouds.6 mph79%30.41 "Hg15 mi
9:00 PM14 °FClear.2 mph79%30.42 "Hg15 mi
8:00 PM18 °FPassing clouds.6 mph68%30.44 "Hg15 mi
7:00 PM19 °FPassing clouds.6 mph73%30.44 "Hg15 mi
6:00 PM28 °FPassing clouds.7 mph47%30.43 "Hg15 mi
5:00 PM30 °FScattered clouds.8 mph43%30.44 "Hg15 mi
4:00 PM30 °FPassing clouds.8 mph43%30.45 "Hg15 mi
3:00 PM30 °FScattered clouds.12 mph47%30.45 "Hg15 mi
2:00 PM30 °FPassing clouds.8 mph43%30.45 "Hg15 mi
1:00 PM28 °FPassing clouds.8 mph47%30.47 "Hg15 mi
12:00 PM28 °FPassing clouds.9 mph47%30.47 "Hg15 mi
11:00 AM27 °FPassing clouds.12 mph50%30.46 "Hg15 mi
10:00 AM25 °FPassing clouds.13 mph59%30.45 "Hg15 mi
9:00 AM23 °FSunny.13 mph63%30.44 "Hg15 mi
8:00 AM21 °FPassing clouds.10 mph68%30.41 "Hg15 mi
7:00 AM19 °FPassing clouds.9 mph73%30.38 "Hg10 mi
6:00 AM19 °FPassing clouds.9 mph79%30.35 "Hg10 mi
5:00 AM21 °FPassing clouds.14 mph80%30.32 "Hg8 mi
4:00 AM21 °FLight snow. Overcast.12 mph86%30.27 "Hg5 mi
3:00 AM19 °FLight snow. Passing clouds.12 mph79%30.27 "Hg8 mi
Weather by CustomWeather, © 2015

See weather overviewHow to use our weather pages